Date String (YYYY-MM-DD hh:mm:ss) UTC,Instrument flags,absolute air pressure of the measurement (hPa),sample flow rate (lpm),inlet stack bypass flow (lpm),air temperature of the measurement (°C),ambient temperature measured by the external sensor (°C),aerosol sample conditioner tube jacket temperature (°C),OPC LED temperature (°C),internal box temperature (°C),relative humidity of the measurement (%),span deviation,mass concentration of particles derived from Lorenz-Mie calculation of OPC scattering (μg/m³),mass concentration of particles derived from Lorenz-Mie calculation of OPC scattering (μg/m³),mass concentration of particles derived from Lorenz-Mie calculation of OPC scattering (μg/m³)
DateTimeUTC,F1_M11,P_M11,Q1_M11,Q2_M11,T1_M11,T2_M11,T3_M11,T4_M11,T5_M11,U1_M11,ZSPAN_M11,X2_M11,X0_M11,X1_M11
2023-07-22 23:00:00,SystemResetWarning,0834.4,5.01,000.00,028.7,027.0,000.0,036.9,030.4,23.1,0000.0,0005.86,0009.65,0005.43
2023-07-22 23:01:00,SystemResetWarning,0834.5,4.99,000.00,028.7,027.4,000.0,037.0,030.5,23.0,0000.0,0005.90,0009.96,0005.46
2023-07-22 23:02:00,SystemResetWarning,0834.3,4.99,000.00,028.8,027.5,000.0,037.0,030.6,22.7,0000.0,0005.91,0009.95,0005.46
2023-07-22 23:03:00,SystemResetWarning,0834.4,4.99,000.00,028.8,026.2,000.0,036.9,030.4,23.1,0000.0,0005.90,0009.93,0005.48
2023-07-22 23:04:00,SystemResetWarning,0834.4,5.00,000.00,028.7,024.9,000.0,036.8,030.1,26.0,0000.0,0005.90,0009.69,0005.50
2023-07-22 23:05:00,SystemResetWarning,0834.3,5.01,000.00,028.6,024.8,000.0,036.8,030.0,23.8,0000.0,0005.91,0009.14,0005.51
2023-07-22 23:06:00,SystemResetWarning,0834.3,5.01,000.00,028.6,025.2,000.0,036.8,029.9,24.1,0000.0,0005.93,0009.10,0005.53
2023-07-22 23:07:00,SystemResetWarning,0834.3,4.99,000.00,028.6,025.7,000.0,036.9,030.0,24.3,0000.0,0005.92,0008.91,0005.54
2023-07-22 23:08:00,SystemResetWarning,0834.4,5.00,000.00,028.6,026.2,000.0,036.9,030.2,24.0,0000.0,0005.96,0008.95,0005.56
2023-07-22 23:09:00,SystemResetWarning,0834.4,5.00,000.00,028.6,026.6,000.0,036.9,030.3,23.3,0000.0,0006.00,0009.07,0005.57
2023-07-22 23:10:00,SystemResetWarning,0834.4,4.99,000.00,028.7,027.0,000.0,037.0,030.4,23.5,0000.0,0006.03,0009.34,0005.58
2023-07-22 23:11:00,SystemResetWarning,0834.4,4.99,000.00,028.7,027.4,000.0,037.0,030.5,23.8,0000.0,0006.03,0009.67,0005.58
2023-07-22 23:12:00,SystemResetWarning,0834.4,5.00,000.00,028.8,027.6,000.0,037.0,030.6,23.8,0001.1,0006.00,0009.55,0005.58
2023-07-22 23:13:00,SystemResetWarning,0834.4,5.00,000.00,028.8,026.4,000.0,036.9,030.4,24.7,0000.3,0006.01,0010.39,0005.58
2023-07-22 23:14:00,SystemResetWarning,0834.4,5.00,000.00,028.7,024.9,000.0,036.8,030.1,25.7,0000.1,0006.04,0010.60,0005.59
2023-07-22 23:15:00,SystemResetWarning,0834.4,5.01,000.00,028.7,024.8,000.0,036.8,030.0,26.4,0000.0,0006.06,0010.64,0005.59
2023-07-22 23:16:00,SystemResetWarning,0834.4,5.01,000.00,028.6,025.1,000.0,036.8,029.9,25.1,0000.0,0006.05,0010.62,0005.60
2023-07-22 23:17:00,SystemResetWarning,0834.4,5.00,000.00,028.6,025.6,000.0,036.9,030.0,24.2,0000.0,0006.05,0010.64,0005.61
2023-07-22 23:18:00,SystemResetWarning,0834.5,5.00,000.00,028.6,026.1,000.0,036.9,030.1,23.9,0000.0,0006.06,0010.64,0005.62
2023-07-22 23:19:00,SystemResetWarning,0834.5,5.00,000.00,028.6,026.5,000.0,036.9,030.3,23.6,0000.0,0006.06,0010.64,0005.62
2023-07-22 23:20:00,SystemResetWarning,0834.5,5.00,000.00,028.7,026.9,000.0,036.9,030.3,23.5,0000.0,0006.04,0010.57,0005.64
2023-07-22 23:21:00,SystemResetWarning,0834.5,4.99,000.00,028.7,027.3,000.0,037.0,030.5,24.0,0000.0,0006.02,0010.84,0005.65
2023-07-22 23:22:00,SystemResetWarning,0834.5,5.00,000.00,028.8,027.6,000.0,037.0,030.5,24.7,0000.0,0006.00,0010.37,0005.66
2023-07-22 23:23:00,SystemResetWarning,0834.5,5.00,000.00,028.8,027.5,000.0,037.0,030.6,26.0,0000.0,0006.04,0011.02,0005.67
2023-07-22 23:24:00,SystemResetWarning,0834.5,4.98,000.00,028.8,025.9,000.0,036.9,030.4,26.1,0000.0,0006.06,0010.48,0005.70
2023-07-22 23:25:00,SystemResetWarning,0834.4,5.01,000.00,028.7,024.8,000.0,036.8,030.2,26.9,0000.0,0006.06,0009.95,0005.70
2023-07-22 23:26:00,SystemResetWarning,0834.4,5.01,000.00,028.7,024.9,000.0,036.8,030.0,27.7,0000.0,0006.03,0009.97,0005.69
2023-07-22 23:27:00,SystemResetWarning,0834.4,5.01,000.00,028.6,025.3,000.0,036.9,030.0,28.2,0000.0,0006.06,0010.22,0005.69
2023-07-22 23:28:00,SystemResetWarning,0834.5,4.99,000.00,028.6,025.8,000.0,036.9,030.1,28.1,0000.0,0006.06,0010.30,0005.69
2023-07-22 23:29:00,SystemResetWarning,0834.5,5.00,000.00,028.6,026.2,000.0,036.9,030.2,27.7,0000.0,0006.05,0010.28,0005.68
2023-07-22 23:30:00,SystemResetWarning,0834.6,5.01,000.00,028.6,026.7,000.0,037.0,030.3,26.6,0000.0,0006.05,0010.33,0005.70
2023-07-22 23:31:00,SystemResetWarning,0834.5,4.99,000.00,028.7,027.1,000.0,037.0,030.4,25.9,0000.0,0006.05,0010.33,0005.71
2023-07-22 23:32:00,SystemResetWarning,0834.9,4.99,000.00,028.7,027.4,000.0,037.0,030.5,25.4,0000.0,0006.06,0010.08,0005.71
2023-07-22 23:33:00,SystemResetWarning,0835.0,5.01,000.00,028.8,027.4,000.0,037.0,030.6,25.8,0000.0,0006.09,0010.12,0005.72
2023-07-22 23:34:00,SystemResetWarning,0834.9,4.99,000.00,028.8,026.2,000.0,036.9,030.4,26.3,0000.0,0006.11,0010.11,0005.72
2023-07-22 23:35:00,SystemResetWarning,0834.7,5.02,000.00,028.8,025.6,000.0,036.9,030.3,27.6,0000.0,0006.13,0009.92,0005.72
2023-07-22 23:36:00,SystemResetWarning,0834.5,5.00,000.00,028.7,025.8,000.0,036.9,030.2,28.4,0000.0,0006.16,0009.96,0005.72
2023-07-22 23:37:00,SystemResetWarning,0834.5,4.99,000.00,028.7,026.1,000.0,036.9,030.2,28.1,0000.0,0006.17,0010.24,0005.74
2023-07-22 23:38:00,SystemResetWarning,0834.5,5.01,000.00,028.7,026.5,000.0,037.0,030.3,28.3,0000.0,0006.21,0010.77,0005.74
2023-07-22 23:39:00,SystemResetWarning,0834.5,5.00,000.00,028.8,026.9,000.0,037.0,030.4,28.0,0000.0,0006.24,0011.44,0005.75
2023-07-22 23:40:00,SystemResetWarning,0834.5,5.00,000.00,028.8,027.2,000.0,037.1,030.5,27.6,0000.0,0006.26,0012.45,0005.76
2023-07-22 23:41:00,SystemResetWarning,0834.5,5.00,000.00,028.9,027.4,000.0,037.1,030.6,27.4,0000.0,0006.28,0013.01,0005.77
2023-07-22 23:42:00,SystemResetWarning,0834.4,4.98,000.00,028.9,026.0,000.0,037.0,030.5,27.8,0000.0,0006.29,0013.42,0005.74
2023-07-22 23:43:00,SystemResetWarning,0834.3,5.01,000.00,028.8,024.8,000.0,036.9,030.3,28.7,0000.0,0006.24,0013.55,0005.71
2023-07-22 23:44:00,SystemResetWarning,0834.8,5.01,000.00,028.7,024.7,000.0,036.8,030.1,27.8,0000.0,0006.20,0013.31,0005.69
2023-07-22 23:45:00,SystemResetWarning,0834.2,5.00,000.00,028.6,025.1,000.0,036.9,030.0,28.4,0000.0,0006.17,0012.75,0005.66
2023-07-22 23:46:00,SystemResetWarning,0834.2,4.99,000.00,028.6,025.6,000.0,036.9,030.1,27.1,0000.0,0006.10,0012.86,0005.63
2023-07-22 23:47:00,SystemResetWarning,0834.2,5.00,000.00,028.6,026.1,000.0,037.0,030.2,27.0,0000.0,0006.06,0013.20,0005.60
2023-07-22 23:48:00,SystemResetWarning,0834.1,5.02,000.00,028.7,026.6,000.0,037.0,030.3,26.6,0000.0,0006.04,0013.77,0005.55
2023-07-22 23:49:00,SystemResetWarning,0834.1,4.99,000.00,028.7,026.9,000.0,037.0,030.4,26.5,0000.0,0005.98,0013.03,0005.53
2023-07-22 23:50:00,SystemResetWarning,0834.2,5.00,000.00,028.8,027.3,000.0,037.0,030.5,26.0,0000.0,0005.94,0012.26,0005.50
2023-07-22 23:51:00,SystemResetWarning,0834.2,5.00,000.00,028.8,027.6,000.0,037.1,030.6,26.2,0000.0,0005.90,0011.23,0005.47
2023-07-22 23:52:00,SystemResetWarning,0834.2,4.99,000.00,028.9,027.2,000.0,037.1,030.6,27.1,0000.0,0005.83,0010.63,0005.42
2023-07-22 23:53:00,SystemResetWarning,0834.1,4.99,000.00,028.8,025.9,000.0,037.0,030.4,28.2,0000.0,0005.79,0010.34,0005.39
2023-07-22 23:54:00,SystemResetWarning,0834.1,5.01,000.00,028.8,025.6,000.0,036.9,030.3,28.4,0000.0,0005.82,0010.51,0005.38
2023-07-22 23:55:00,SystemResetWarning,0834.1,5.02,000.00,028.7,025.9,000.0,037.0,030.2,28.2,0000.0,0005.83,0010.63,0005.36
2023-07-22 23:56:00,SystemResetWarning,0834.2,5.00,000.00,028.7,026.3,000.0,037.0,030.3,28.2,0000.0,0005.79,0010.56,0005.35
2023-07-22 23:57:00,SystemResetWarning,0834.2,5.00,000.00,028.8,026.6,000.0,037.0,030.4,29.6,0000.0,0005.79,0011.11,0005.34
2023-07-22 23:58:00,SystemResetWarning,0834.2,5.00,000.00,028.8,027.0,000.0,037.1,030.5,31.0,0000.0,0005.79,0011.55,0005.34
2023-07-22 23:59:00,SystemResetWarning,0834.2,5.00,000.00,028.8,027.3,000.0,037.1,030.6,31.3,0000.0,0005.77,0010.92,0005.35
